Location: *
(47.2458°N, 3.3686°E)
Time: 03:47:10
(UTC+00:00)

Daily predictions for brighter satellites

Satellite Brightness Start Highest point End
(mag) Time Altitude Azimuth Time Altitude Azimuth Time Altitude Azimuth
CZ-2D R/B 4.4 00:03:38 10° ENE 00:06:09 13° E 00:08:41 10° ESE
SL-4 R/B 3.2 00:02:29 10° W 00:07:10 50° N 00:11:38 10° ENE
Cosmos 1315 Rocket 3.2 00:03:40 10° NNW 00:07:28 47° W 00:07:30 47° W
ATLAS 3B R/B 4.1 00:02:06 10° NNW 00:08:11 36° NNE 00:14:18 10° E
SWAS 4.3 00:06:08 10° NNW 00:10:26 86° WSW 00:10:53 70° SSE
PSLV R/B 3.8 00:06:28 10° NNE 00:10:38 51° E 00:11:05 48° ESE
ALOS 2 4.1 00:10:40 23° WSW 00:11:04 23° W 00:14:37 10° NW
Iridium 2 3.9 00:12:24 59° ESE 00:12:32 59° E 00:16:18 10° NNE
Okean 3 3.6 00:09:04 10° N 00:13:19 66° E 00:13:59 56° SE
Cosmos 2221 Rocket 3.5 00:09:29 10° NNW 00:14:01 72° W 00:14:40 60° SSW
Helios 1B rocket 4.3 00:11:14 10° NNW 00:14:30 23° WNW 00:16:03 18° W
Cosmos 1386 Rocket 4.4 00:10:10 10° N 00:16:15 75° E 00:18:40 38° SSE
ATLAS CENTAUR R/B 3.2 00:12:59 10° WNW 00:15:54 21° W 00:15:54 21° W
Okean 1-7 4.0 00:13:46 10° NNW 00:17:38 32° W 00:18:01 32° WSW
SL-16 R/B 2.2 00:16:00 41° SW 00:18:04 80° WNW 00:23:46 10° NNE
Lacrosse 4 Rocket 1.6 00:17:40 53° SW 00:18:38 74° WNW 00:23:06 10° NNE
Cosmos 2098 Rocket 4.0 00:16:03 10° NNE 00:18:45 24° ENE 00:18:52 24° ENE
SL-19 R/B 4.2 00:14:12 10° NNE 00:19:55 81° WNW 00:21:45 44° SSW
ISS -2.5 00:16:49 10° WNW 00:20:00 41° N 00:23:10 10° E
USA 238 DEB 4.0 00:13:51 10° NW 00:21:02 75° NE 00:27:48 13° SE
USA 238 4.0 00:13:57 10° NW 00:21:08 74° NE 00:27:58 12° SE
CZ-4B R/B 4.0 00:17:56 10° NNE 00:22:48 47° E 00:24:02 38° SE
ATLAS 2AS CENTAUR R/B 3.7 00:20:55 30° SSE 00:23:58 40° ESE 00:31:20 10° NE
Meteor 2-4 Rocket 4.0 00:19:14 10° N 00:24:59 63° ENE 00:27:29 33° SE
H-2A R/B 3.9 00:22:55 15° ESE 00:25:42 28° ENE 00:29:33 10° N
Cosmos 1437 4.5 00:26:05 23° WNW 00:26:05 23° WNW 00:28:24 10° NNW
Lacrosse 5 1.9 00:29:58 10° WNW 00:34:54 55° SW 00:35:32 51° SSW
Cosmos 2237 Rocket 3.8 00:31:28 12° WSW 00:35:48 28° NW 00:40:39 10° N
Cosmos 1943 4.2 00:34:58 28° SE 00:36:43 34° ESE 00:41:45 10° NE
COSMOS 2455 3.5 00:35:05 23° WSW 00:38:44 51° NW 00:44:38 10° NNE
Meteor 1-19 Rocket 4.3 00:40:39 10° NNW 00:46:03 60° W 00:47:40 42° SSW
BREEZE M DEB (TANK) 3.4 00:46:42 42° SW 00:48:15 69° SSE 01:01:18 10° ENE
FALCON 9 DEB 4.4 00:49:29 31° E 00:49:29 31° E 00:51:42 10° ENE
Cosmos 1602 4.4 00:48:23 40° W 00:48:51 42° WNW 00:52:36 10° N
CZ-4C R/B 3.9 00:49:14 46° WSW 00:49:46 49° W 00:54:05 10° NNW
Cosmos 1515 3.5 00:48:38 10° N 00:52:27 84° W 00:52:48 72° SSW
Cosmos 1809 Rocket 4.4 00:48:39 10° NNW 00:54:43 69° W 00:57:11 37° SSW
USA 32 4.0 00:52:07 10° N 00:57:25 89° E 00:59:24 40° S
Meteor 1-11 Rocket 3.8 00:59:09 37° S 01:01:27 73° E 01:07:10 10° NNE
OPS 8737 4.4 01:01:16 71° SW 01:01:38 88° SE 01:04:52 10° NE
NOSS 2-2 (C) 3.5 01:03:39 49° SE 01:03:58 51° ESE 01:08:00 10° NE
NOSS 3-2 (C) 4.1 00:59:40 10° NW 01:07:09 80° NE 01:15:30 10° SE
Cosmos 1975 Rocket 3.9 01:05:45 10° N 01:09:56 45° ENE 01:12:14 23° SE
Unknown 4.4 01:11:36 35° SE 01:11:41 35° SE 01:15:28 10° ENE
Unknown 4.5 01:12:07 33° SE 01:12:08 33° SE 01:15:50 10° ENE
Unknown 3.8 01:12:24 45° SE 01:12:24 45° SE 01:15:55 10° ENE
Cosmos 1674 Rocket 4.0 01:08:08 10° NNW 01:12:27 48° W 01:13:21 42° SW
Cosmos 1943 Rocket 2.1 01:07:32 10° NNW 01:13:00 66° WSW 01:15:22 34° S
Unknown 4.4 01:13:22 34° SE 01:13:28 34° SE 01:17:15 10° ENE
ATLAS 5 CENTAUR R/B 2.5 01:08:28 10° NW 01:14:08 53° WSW 01:17:11 29° S
Unknown 4.3 01:14:46 36° SE 01:14:57 37° SE 01:18:47 10° ENE
Cosmos 1733 Rocket 3.9 01:15:08 32° WSW 01:16:18 38° WNW 01:20:26 10° N
Unknown 4.3 01:16:18 36° SSE 01:16:31 36° SE 01:20:21 10° ENE
SL-16 R/B 2.6 01:13:07 20° SSE 01:17:34 78° ENE 01:23:47 10° NNW
Meteor 2-16 Rocket 4.4 01:11:39 10° NNW 01:17:49 77° W 01:21:00 30° S
Unknown 4.3 01:17:54 37° SSE 01:18:11 37° SE 01:22:02 10° ENE
Falcon 9 debris 2.9 01:19:49 71° S 01:19:58 73° SSE 01:23:25 10° ENE
Gbstr 26 Del rocket 2.7 01:17:52 10° WNW 01:21:37 60° SSW 01:25:48 10° SE
Cosmos 1709 Rocket 4.1 01:16:13 10° NNW 01:22:17 59° W 01:25:07 32° SSW
Cosmos 1503 Rocket 4.4 01:20:01 32° SW 01:22:18 56° WNW 01:27:34 10° NNE
Cosmos 1538 Rocket 4.4 01:17:54 10° NNW 01:23:09 61° ENE 01:27:52 12° SE
Unknown 4.1 01:22:43 39° SSE 01:23:10 40° SE 01:27:04 10° ENE
Resurs 1-4 Rocket 2.5 01:18:46 10° NNE 01:24:00 57° E 01:26:43 28° SSE
Cosmos 1536 2.7 01:23:09 49° SSW 01:24:09 80° W 01:28:12 10° N
Unknown 4.1 01:24:17 39° SSE 01:24:48 41° SE 01:28:43 10° ENE
Unknown 2.9 01:24:52 69° SSW 01:25:13 79° SSE 01:28:39 10° ENE
USA 215 3.9 01:18:54 10° ESE 01:25:17 59° NNE 01:31:41 10° NW
Unknown 2.7 01:26:24 84° NNW 01:26:24 84° NNW 01:29:23 10° ENE
Unknown 4.1 01:25:54 40° SSE 01:26:28 43° SE 01:30:24 10° ENE
Unknown 4.0 01:27:29 41° SSE 01:28:06 44° SE 01:32:04 10° ENE
NOSS 3-4 (A) 3.9 01:25:36 29° S 01:28:26 50° ESE 01:34:33 10° NE
Lacrosse 5 rocket 3.8 01:25:52 10° W 01:26:14 11° W 01:26:14 11° W
NOSS 3-4 (C) 3.9 01:25:42 29° S 01:28:32 50° ESE 01:34:38 10° NE
Cosmos 1378 Rocket 3.9 01:24:44 10° NNW 01:28:51 45° W 01:29:49 38° SW
Unknown 4.0 01:30:40 41° S 01:31:26 47° SE 01:35:26 10° ENE
Cosmos 1666 3.1 01:30:42 35° SSE 01:32:01 55° E 01:35:48 10° NNE
ADEOS II 4.0 01:28:04 10° NE 01:32:11 23° E 01:36:18 10° SE
UNK 3.6 01:30:23 31° SSE 01:32:36 87° WSW 01:37:13 10° NNW
Cosmos 1346 Rocket 4.2 01:30:41 20° SE 01:32:44 32° E 01:36:20 10° NNE
Unknown 4.0 01:32:15 41° S 01:33:05 48° SE 01:37:07 10° ENE
Cosmos 968 Rocket 4.0 01:31:13 28° WSW 01:33:36 49° WNW 01:38:37 10° NNE
Unknown 3.9 01:33:52 41° S 01:34:44 49° SE 01:38:45 10° ENE
Unknown 3.9 01:35:26 41° S 01:36:21 49° SE 01:40:23 10° ENE
Cosmos 2369 Rocket 2.5 01:31:53 10° NW 01:37:19 46° WSW 01:39:40 30° SSW
Unknown 3.9 01:37:03 41° S 01:38:02 52° SE 01:42:05 10° ENE
Unknown 3.9 01:38:33 40° S 01:39:33 50° SE 01:43:35 10° ENE
AQUA 4.1 01:34:56 10° NNE 01:39:41 62° ESE 01:42:11 27° S
Cosmos 1908 Rocket 3.9 01:39:20 35° SW 01:40:50 51° WNW 01:45:11 10° N
CZ-4B R/B 3.8 01:38:39 10° ESE 01:40:59 19° ENE 01:43:18 10° NNE
Okean 2 Rocket 3.9 01:38:28 21° SSE 01:41:02 45° E 01:45:17 10° NNE
NOSS 8 (F) 4.5 01:40:37 45° W 01:41:17 59° NW 01:44:26 10° NE
Unknown 3.9 01:41:44 39° SSW 01:42:52 53° SE 01:46:55 10° ENE
Unknown 3.8 01:43:20 39° SSW 01:44:31 54° SE 01:48:35 10° ENE
Unknown 3.7 01:44:56 39° SSW 01:46:14 60° SE 01:50:20 10° ENE
Unknown 3.7 01:45:04 39° SSW 01:46:23 60° SE 01:50:29 10° ENE
NOSS 3-2 (A) 4.2 01:39:16 10° NW 01:46:34 52° WSW 01:54:31 10° SSE
CZ-2D R/B 2.2 01:41:31 10° NNE 01:46:59 86° ESE 01:50:08 27° SSW
SAR-Lupe-4 4.3 01:47:03 34° WSW 01:47:23 35° W 01:50:43 10° NNW
SL-4 R/B 2.8 01:42:46 10° WNW 01:47:24 59° NNE 01:51:45 10° E
Unknown 3.8 01:46:30 38° SSW 01:47:49 57° SE 01:51:54 10° ENE
Cosmos 1603 4.1 01:45:38 25° SW 01:48:51 53° WNW 01:54:23 10° NNE
Okean 2 3.9 01:44:58 10° N 01:49:07 59° ENE 01:52:10 17° SSE
Unknown 3.7 01:48:07 37° SSW 01:49:30 59° SE 01:53:35 10° ENE
Cosmos 2315 Rocket 4.5 01:46:31 25° SW 01:49:56 48° WNW 01:56:07 10° N
Meteor 1-23 Rocket 4.4 01:45:18 10° NNW 01:51:02 60° W 01:54:26 25° SSW
CZ-4C R/B 3.1 01:50:02 28° SSE 01:51:45 78° ENE 01:55:20 10° N
Unknown 3.7 01:51:18 36° SSW 01:52:48 62° SE 01:56:55 10° ENE
Unknown 3.7 01:52:56 35° SSW 01:54:29 63° SE 01:58:36 10° ENE
IRS-1D 3.7 01:50:21 10° NNE 01:55:17 65° ESE 01:58:27 22° S
CENTAUR R/B 3.1 01:47:31 10° NW 01:55:30 83° SW 02:04:10 10° SSE
Cosmos 1340 3.4 01:53:29 23° SSE 01:55:30 46° E 01:59:08 10° NNE
SL-08 R/B 3.4 01:51:50 14° SSE 01:55:45 75° ENE 02:00:31 10° N
Unknown 3.6 01:54:31 34° SW 01:56:08 65° SE 02:00:15 10° ENE
Cosmos 1777 Rocket 4.0 01:53:54 27° SSW 01:56:47 83° ESE 02:02:03 10° NNE
ISS -3.9 01:53:32 10° WNW 01:56:50 69° SSW 02:00:08 10° SE
MOZ.5/SAFIR/RUBIN 5/SL-8 4.0 01:55:07 29° SSW 01:57:17 52° W 02:01:56 10° NNW
Unknown 3.6 01:56:06 34° SW 01:57:47 67° SSE 02:01:55 10° ENE
Lacrosse 4 Rocket 4.0 01:55:33 10° WNW 01:58:07 15° NW 02:00:40 10° N
Cosmos 2154 Rocket 4.3 01:52:27 10° N 01:58:50 69° E 02:05:08 10° SSE
ATLAS 3B R/B 2.6 01:52:44 10° NW 01:59:21 70° SW 02:06:04 10° SSE
Unknown 3.6 01:57:41 33° SW 01:59:26 68° SSE 02:03:34 10° ENE
Cosmos 2098 Rocket 4.5 01:58:11 10° NW 01:59:22 13° WNW 01:59:22 13° WNW
H-2A R/B 2.9 02:00:01 28° SW 02:01:33 36° W 02:05:46 10° NNW
Milstar 3 4.4 02:01:30 14° S 02:02:16 14° SSE 02:05:41 10° SE
Unknown 3.5 02:01:05 30° SW 02:03:05 80° SSE 02:07:14 10° ENE
SL-16 R/B 4.3 01:59:14 10° W 02:03:07 18° NW 02:07:00 10° N
RESURS DK-1 3.7 02:00:46 18° SSE 02:03:11 31° ESE 02:06:52 10° NE
NOSS 2-2 (E) 4.3 02:02:00 20° W 02:04:14 41° NW 02:08:30 10° NNE
Unknown 3.5 02:02:37 29° SW 02:04:39 80° SSE 02:08:48 10° ENE
Unknown 3.4 02:03:14 29° WSW 02:05:09 90° SSE 02:09:05 10° ENE
Unknown 3.5 02:04:08 29° SW 02:06:10 77° SSE 02:10:20 10° ENE
Cosmos 1975 3.3 02:04:38 20° SSE 02:07:16 58° E 02:11:19 10° NNE
Unknown 3.5 02:05:40 28° SW 02:07:44 77° SSE 02:11:54 10° ENE
Unknown 3.5 02:08:53 27° SW 02:11:05 81° SSE 02:15:15 10° ENE
Unknown 3.5 02:10:27 26° SW 02:12:43 83° SSE 02:16:54 10° ENE
Unknown 3.8 02:11:48 19° W 02:14:05 53° NNW 02:17:29 10° ENE
Unknown 3.5 02:12:03 25° WSW 02:14:24 85° SSE 02:18:34 10° ENE
Cosmos 1782 Rocket 4.3 02:12:31 24° SW 02:14:40 41° WNW 02:18:56 10° N
ATLAS 2AS CENTAUR R/B 3.4 02:08:21 17° WSW 02:14:46 64° NW 02:22:46 10° NE
Cosmos 2151 Rocket 3.9 02:12:43 17° S 02:16:03 65° E 02:20:33 10° NNE
Unknown 3.5 02:13:40 24° WSW 02:16:03 86° SSE 02:20:14 10° ENE
Unknown 3.5 02:15:11 22° WSW 02:17:34 74° NNW 02:21:25 10° ENE
NOSS 2-2 (D) 4.5 02:17:47 16° W 02:20:22 36° NW 02:24:30 10° NNE
Cosmos 1943 3.9 02:16:47 18° WSW 02:20:38 44° NW 02:26:04 10° NNE
Unknown 3.6 02:18:57 21° WSW 02:21:35 82° NNW 02:25:40 10° ENE
Cosmos 1300 Rocket 3.7 02:18:45 17° S 02:22:04 74° E 02:26:31 10° NNE
Unknown 3.6 02:20:02 21° WSW 02:22:42 87° NNW 02:26:53 10° ENE
Unknown 3.6 02:21:36 21° WSW 02:24:21 85° NNW 02:28:31 10° ENE
FALCON 9 DEB 4.0 02:22:48 14° W 02:25:33 46° NNW 02:28:54 10° ENE
Meteor 2-15 Rocket 4.5 02:20:28 15° S 02:25:37 85° E 02:31:44 10° N
Cosmos 2184 Rocket 4.3 02:19:37 10° NNW 02:25:41 50° W 02:30:25 16° SSW
Unknown 3.6 02:23:12 20° WSW 02:26:00 83° NNW 02:30:11 10° ENE
Unknown 3.6 02:23:11 20° WSW 02:26:01 83° NNW 02:30:13 10° ENE
Unknown 3.6 02:24:50 19° WSW 02:27:42 82° NNW 02:31:52 10° ENE
Unknown 3.7 02:26:25 19° WSW 02:29:22 80° NNW 02:33:32 10° ENE
CZ-2D R/B 4.3 02:25:40 10° NNE 02:29:52 49° E 02:34:04 10° S
Unknown 3.7 02:29:35 18° WSW 02:32:39 77° NNW 02:36:49 10° ENE
IRS-1C 4.2 02:27:32 10° N 02:32:53 74° WNW 02:37:07 16° SSW
Cosmos 2112 Rocket 4.3 02:28:25 10° NNW 02:33:47 73° ENE 02:39:04 10° SSE
Starlink (trailer) 3.7 02:31:12 17° WSW 02:34:21 75° NNW 02:38:30 10° ENE
NPP 4.4 02:30:11 10° N 02:35:11 40° WNW 02:39:01 16° SW
Unknown 3.7 02:32:48 16° WSW 02:36:00 74° NNW 02:40:10 10° ENE
Unknown 3.8 02:34:23 16° WSW 02:37:39 73° NNW 02:41:49 10° ENE
Cosmos 1656 Rocket 4.3 02:33:27 10° NW 02:38:38 37° WSW 02:43:35 11° S
ERS-1 4.5 02:34:30 10° NNE 02:39:36 82° WNW 02:43:55 14° SSW
Okean 1 Rocket 3.8 02:36:32 10° S 02:40:54 52° E 02:45:16 10° NNE
Unknown 3.9 02:40:45 14° WSW 02:44:19 67° NNW 02:48:28 10° ENE
Cosmos 1743 3.4 02:42:23 19° SW 02:44:47 39° WNW 02:48:28 10° N
Cosmos 1025 Rocket 3.0 02:41:22 10° NNW 02:45:46 75° W 02:50:09 10° S
Unknown 3.9 02:42:22 13° WSW 02:46:01 66° NNW 02:50:09 10° ENE
Cosmos 2181 Rocket 4.4 02:41:19 10° S 02:47:32 66° E 02:53:41 10° NNE
Unknown 3.9 02:43:57 13° WSW 02:47:40 64° NNW 02:51:48 10° ENE
Meteor 1-21 4.3 02:42:54 10° NNW 02:48:45 79° W 02:54:30 10° S
Unknown 4.0 02:45:32 12° WSW 02:49:18 64° NNW 02:53:26 10° ENE
Unknown 4.2 02:46:48 10° W 02:50:26 47° NNW 02:54:06 10° ENE
Unknown 4.0 02:47:14 11° WSW 02:51:07 61° NNW 02:55:15 10° ENE
Unknown 3.9 02:47:36 12° WSW 02:51:23 62° NNW 02:55:28 10° ENE
ARIANE 5 R/B 2.6 02:46:39 10° N 02:51:45 70° WNW 02:56:29 12° SSW
Unknown 4.0 02:49:00 11° WSW 02:52:55 61° NNW 02:57:03 10° ENE
Cosmos 962 Rocket 4.5 02:47:58 10° NNW 02:54:09 73° W 03:00:13 10° S
Cosmos 1378 3.2 02:50:30 10° NNW 02:54:09 59° W 02:57:47 10° S
Unknown 4.1 02:50:24 10° WSW 02:54:25 59° NNW 02:58:32 10° ENE
Cosmos 1842 3.3 02:51:23 10° NNW 02:55:13 59° W 02:59:01 10° S
GEOS 3 Rocket 4.0 02:50:45 10° NE 02:55:50 59° SE 03:00:46 11° SSW
Unknown 4.1 02:51:56 10° WSW 02:56:00 59° NNW 03:00:07 10° ENE
Unknown 4.1 02:53:34 10° WSW 02:57:40 58° NNW 03:01:47 10° ENE
Cosmos 923 Rocket 4.3 02:53:14 10° NNW 02:58:22 49° WSW 03:03:28 10° S
Meteor 2-9 Rocket 4.2 02:53:44 10° SSW 02:59:09 82° WNW 03:04:47 10° N
SL-16 R/B 3.9 02:58:14 12° SW 03:01:50 20° W 03:06:12 10° NW
Meteor 1-28 Rocket 3.8 02:58:29 10° SSE 03:02:13 61° ENE 03:05:58 10° N
Unknown 4.2 02:58:37 10° W 03:02:42 55° NNW 03:06:48 10° ENE
Cosmos 405 3.0 02:59:45 10° N 03:03:18 83° E 03:06:50 10° SSE
EXPRESS MD2 3.5 03:00:50 10° WNW 03:03:20 53° N 03:07:28 10° E
Resurs 1-4 Rocket 3.6 02:59:18 10° N 03:03:28 24° WNW 03:07:36 10° WSW
Unknown 4.2 03:00:15 10° W 03:04:20 55° NNW 03:08:26 10° ENE
Aureole 3 4.3 03:02:14 10° SSE 03:04:59 35° E 03:08:02 10° NNE
Unknown 4.2 03:01:57 10° W 03:06:01 54° NNW 03:10:06 10° ENE
Unknown 4.3 03:03:37 10° W 03:07:41 53° NNW 03:11:46 10° ENE
USA 215 3.3 03:01:54 10° SE 03:08:19 58° SW 03:14:46 10° WNW
Cosmos 1346 Rocket 4.3 03:06:12 12° WSW 03:09:09 23° WNW 03:12:25 10° NNW
Unknown 4.3 03:06:58 10° W 03:11:02 51° NNW 03:15:06 10° ENE
ADEOS II 2.4 03:07:05 10° N 03:12:14 54° WNW 03:17:20 10° SW
Spot 4 Rocket 4.3 03:07:33 10° N 03:12:35 55° WNW 03:17:36 10° SW
Unknown 4.3 03:08:38 10° W 03:12:42 51° NNW 03:16:47 10° ENE
CZ-4B R/B 2.5 03:10:55 11° SSW 03:13:17 23° W 03:15:52 10° NW
Unknown 4.4 03:10:19 10° W 03:14:22 50° NNW 03:18:25 10° ENE
CZ-2C R/B 2.7 03:11:00 10° N 03:14:42 69° WNW 03:18:26 10° SSW
IDEFIX/ARIANE 42P 3.9 03:09:56 10° NNE 03:14:45 37° E 03:19:32 10° SSE
Unknown 4.4 03:11:56 10° W 03:16:00 50° NNW 03:20:02 10° ENE
SJ 16-02 2.0 03:11:58 10° S 03:16:13 55° ESE 03:20:31 10° NNE
Cosmos 158 Rocket 4.0 03:11:38 10° NNW 03:16:40 84° ENE 03:21:47 10° SSE
Unknown 4.4 03:13:39 10° W 03:17:42 49° NNW 03:21:44 10° ENE
Unknown 4.4 03:15:08 10° W 03:19:11 50° NNW 03:23:15 10° ENE
NOSS 3-4 (A) 4.3 03:13:40 10° WSW 03:19:28 42° NW 03:25:40 10° NE
NOSS 3-4 (C) 4.3 03:13:45 10° WSW 03:19:33 42° NW 03:25:45 10° NE
Genesis I 3.5 03:16:40 10° SW 03:20:40 63° NW 03:24:43 10° NNE
Unknown 4.4 03:18:29 10° W 03:22:32 48° NNW 03:26:34 10° ENE
Cosmos 1455 Rocket 4.5 03:19:36 10° SSE 03:23:41 39° E 03:27:45 10° NNE
Cosmos 1680 Rocket 4.1 03:19:16 10° NW 03:24:10 38° WSW 03:29:00 10° S
Unknown 4.5 03:20:10 10° W 03:24:12 48° NNW 03:28:14 10° ENE
CZ-2D R/B 4.0 03:22:55 10° NNW 03:26:21 17° WNW 03:29:49 10° W
SL-4 R/B 2.3 03:22:45 10° WNW 03:27:10 51° SW 03:31:14 10° SE
Cosmos 1689 Rocket 3.6 03:28:52 10° SSW 03:31:11 20° W 03:33:31 10° NW
Cosmos 1892 Rocket 3.8 03:27:35 10° N 03:31:57 77° E 03:36:18 10° SSE
ISS -1.9 03:31:33 10° WSW 03:33:00 12° SW 03:34:28 10° SSW
Cosmos 1937 Rocket 3.6 03:29:45 10° SSW 03:34:57 88° ESE 03:40:15 10° NNE
Cosmos 2366 rocket 4.0 03:29:26 10° NNW 03:35:33 69° W 03:41:38 10° S
Cosmos 1898 Rocket 3.7 03:30:40 10° SSW 03:35:58 69° WNW 03:41:19 10° NNE
COSMOS 2406 3.3 03:31:43 10° SSW 03:37:23 85° ESE 03:43:06 10° NNE
